GFSGBSN_sfc_temp_273.txt.gz
Temp
63 63 63 63 62 62 62 62 62 61 61 61 61 61 61 61 61 62 62 61 61 61 61 62 63 64 73 78 82 92 84 85 90 90 91 90 88 87 82 81 81 79 79 80 81 83 83
63 63 63 62 62 62 61 61 62 61 61 61 61 61 60 60 60 61 61 61 60 60 61 63 64 64 76 74 91 91 89 92 94 93 93 93 91 91 85 82 81 80 79 79 80 81 83
63 63 63 62 62 61 61 61 61 61 61 61 61 60 60 60 60 60 60 59 58 60 61 63 65 69 75 80 90 89 88 92 95 96 93 95 95 91 87 81 84 81 77 79 80 80 80
64 63 63 62 62 61 61 61 61 61 60 60 61 60 61 61 60 60 59 58 59 61 63 64 65 71 76 87 88 87 90 92 92 95 94 95 95 90 86 86 82 78 77 71 78 79 79
63 63 63 63 63 62 61 61 61 61 61 60 61 61 61 60 59 59 58 58 60 65 65 66 70 74 77 86 87 91 92 93 93 94 94 96 93 85 85 81 77 76 71 70 73 80 79
63 63 63 63 63 62 62 62 61 61 61 61 60 60 60 59 59 58 57 58 61 65 68 71 75 72 82 82 88 90 91 92 93 93 91 90 88 84 82 82 71 72 72 71 71 77 78
64 63 63 63 62 62 62 62 62 61 61 60 60 59 59 59 58 57 59 72 76 74 73 76 77 74 79 87 88 89 91 92 93 89 83 83 83 79 80 82 77 75 74 72 75 78 76
62 62 62 62 62 61 61 61 62 61 61 60 59 59 59 58 57 56 59 74 70 72 69 75 75 75 79 84 79 86 91 88 86 80 81 81 78 84 82 79 76 75 74 74 76 78 77
62 61 61 61 61 61 61 60 60 61 61 60 59 59 58 58 56 61 63 71 72 74 68 73 75 75 79 83 80 82 88 85 83 78 79 78 82 83 81 79 77 76 75 74 74 75 76
61 61 61 60 61 61 61 60 60 61 61 59 59 58 58 56 62 61 71 71 71 72 66 71 73 79 79 81 79 88 89 88 81 79 79 80 83 81 79 79 79 75 81 78 74 72 70
61 61 61 60 60 61 60 60 59 60 60 59 59 58 57 55 60 66 70 68 71 73 56 74 75 84 79 79 82 83 88 87 80 78 79 78 79 79 79 80 80 77 81 78 75 74 71
61 61 61 61 60 60 60 59 59 59 60 59 58 57 56 56 56 65 66 69 74 65 54 70 76 74 74 78 80 82 84 88 85 79 79 80 83 84 86 84 82 81 78 75 73 73 68
61 61 61 60 60 60 59 59 59 59 59 58 56 55 54 60 70 64 66 75 65 57 70 68 71 74 73 74 76 79 78 78 76 70 71 75 78 84 85 81 80 79 77 68 65 67 65
61 61 60 60 60 60 59 59 59 58 58 56 54 52 55 59 63 63 72 72 54 62 64 73 72 70 70 74 75 75 75 74 74 77 72 69 67 79 84 83 79 76 78 70 57 63 65
61 61 60 60 59 59 59 59 58 58 57 55 53 61 61 65 61 62 72 61 61 63 69 69 72 67 69 72 74 75 74 75 78 79 71 68 69 79 82 86 84 75 73 79 69 65 65
61 61 60 60 59 59 59 59 58 58 57 55 56 60 67 63 63 69 70 55 64 67 71 70 64 67 64 69 71 72 72 78 77 79 84 76 68 80 82 84 79 80 80 71 71 60 58
61 61 60 60 60 59 60 59 58 57 54 53 61 67 67 63 66 71 63 63 65 72 72 70 67 67 67 67 69 69 73 78 79 77 79 79 74 72 77 78 78 75 75 71 74 71 65
61 60 60 60 59 59 60 59 57 55 52 55 60 65 68 67 67 60 64 63 59 71 75 73 71 70 69 70 70 69 71 76 81 79 74 79 79 70 74 78 79 80 80 79 72 65 66
60 60 60 60 60 60 60 59 56 54 53 55 57 60 70 69 63 63 63 65 68 70 71 71 70 72 72 70 67 71 73 80 78 78 76 76 74 67 70 75 76 77 77 78 75 74 67
60 60 60 60 60 60 60 58 56 55 54 56 58 60 66 67 63 64 63 64 65 72 70 72 72 73 71 69 72 71 74 79 78 81 71 79 75 73 67 72 78 73 74 74 79 71 71
60 60 60 60 60 60 60 59 57 55 54 57 59 57 58 62 64 64 65 63 64 64 70 71 70 70 69 65 70 69 75 78 78 71 74 83 74 73 77 77 78 78 78 73 73 78 73
59 60 60 60 60 60 60 59 57 56 53 59 58 58 58 58 59 61 57 63 64 67 67 68 67 71 70 66 71 70 73 75 75 76 76 76 70 69 72 74 75 75 76 77 76 74 75
59 59 59 60 60 60 60 59 58 56 55 58 59 60 59 55 58 59 63 64 65 66 70 71 70 68 69 71 74 75 77 77 75 73 74 76 72 69 68 71 72 69 78 78 80 80 81
59 59 59 60 60 60 60 59 59 57 56 57 58 58 58 60 59 61 63 64 65 66 65 70 71 68 74 77 77 74 74 75 75 75 77 71 70 69 67 69 61 78 79 81 78 80 83
58 59 59 59 60 60 60 60 60 58 55 58 58 58 58 57 59 62 63 64 66 66 65 67 71 77 76 74 73 70 74 72 71 71 74 75 72 65 66 67 69 76 75 77 77 79 84
58 58 58 59 60 60 60 60 60 59 56 57 58 59 58 56 61 62 62 62 63 63 66 68 75 76 75 72 71 63 64 68 67 69 72 74 72 74 64 64 62 76 74 75 76 74 76
58 58 58 59 59 60 60 60 60 60 57 57 59 59 58 55 62 61 61 63 65 63 63 65 67 69 71 70 68 67 66 66 66 67 66 69 68 68 66 66 71 76 75 76 68 75 76
57 58 58 58 59 59 60 61 60 60 58 57 60 60 59 56 59 63 65 64 65 64 62 66 66 66 69 65 66 66 66 66 66 65 66 68 67 67 63 63 62 76 72 72 75 75 75
57 57 57 58 58 59 60 60 60 59 59 57 55 61 61 53 59 63 67 70 68 70 67 67 63 62 68 65 64 65 64 64 62 64 63 63 69 71 70 72 73 75 77 79 76 74 75

GFSGBSN_sfc_temp_276.txt.gz
Temp
63 63 63 63 62 62 62 62 62 62 62 62 62 61 61 61 61 62 61 61 61 61 62 63 64 64 82 89 93 101 86 88 99 99 99 99 96 96 91 92 90 87 87 87 89 89 89
63 63 63 62 62 62 62 62 62 62 61 61 61 61 61 62 62 62 61 61 60 60 61 63 64 64 86 84 101 101 99 101 102 101 102 102 98 100 94 91 90 89 87 88 88 88 89
63 63 63 63 62 62 62 61 62 62 61 61 61 62 62 61 61 61 60 60 59 60 62 63 65 76 86 91 102 102 102 102 104 104 101 104 103 99 97 91 93 90 84 86 87 88 87
63 64 63 63 62 62 61 62 62 62 61 62 62 61 61 61 60 60 59 59 59 61 64 64 66 83 86 99 102 100 104 103 105 106 104 105 104 99 96 95 91 87 87 80 85 87 87
64 63 63 63 63 62 62 62 62 61 62 61 61 61 60 60 60 59 58 58 60 64 66 66 80 85 87 90 95 103 104 102 105 105 104 102 102 97 94 90 87 87 79 79 80 87 86
64 63 63 63 63 62 62 62 62 61 61 61 60 60 60 60 59 58 57 59 62 65 73 81 85 80 91 91 97 99 103 103 101 101 98 97 98 93 93 90 75 78 80 81 79 84 85
63 63 62 62 62 62 62 61 61 61 61 60 60 60 59 59 58 57 66 83 82 80 83 87 88 86 89 96 98 98 102 100 101 97 89 95 89 85 89 90 87 86 83 80 84 86 83
63 62 62 62 61 62 62 61 61 61 61 60 60 59 59 59 58 57 69 86 79 81 78 90 88 89 92 92 86 95 101 94 93 87 93 89 84 93 92 89 87 86 82 82 85 86 84
62 62 61 61 61 61 61 61 60 60 60 60 60 59 59 58 57 68 80 83 86 86 80 84 87 86 89 91 88 93 98 96 91 87 88 85 90 94 89 88 86 88 84 82 81 84 87
62 61 61 61 61 60 61 60 60 60 60 60 59 59 58 55 66 80 85 84 87 84 77 80 83 87 88 91 86 98 100 96 91 87 88 88 95 89 88 86 88 82 88 85 82 80 76
62 61 61 61 60 60 60 60 60 59 60 60 59 58 56 54 74 81 82 86 87 85 65 81 83 93 90 88 90 91 100 95 87 87 89 84 87 86 85 87 89 84 89 85 84 82 83
62 62 61 61 61 60 60 60 59 59 59 60 59 57 56 68 75 82 84 85 84 72 62 77 84 82 82 87 89 91 91 96 97 89 89 89 96 93 91 93 90 89 87 86 86 85 74
62 62 61 61 60 60 59 59 59 59 58 57 56 55 55 71 83 82 84 84 72 67 79 75 78 82 83 82 85 87 85 84 82 76 77 85 86 92 94 88 90 88 85 72 68 70 71
61 61 61 60 60 59 59 59 59 58 58 57 55 53 61 73 82 80 83 78 63 71 74 81 80 80 78 84 84 85 84 82 88 87 84 77 74 87 92 89 86 86 86 76 60 64 73
61 61 61 60 60 59 59 59 58 58 58 56 53 82 79 81 79 78 79 69 73 73 77 76 80 77 77 81 82 83 83 83 87 88 79 78 78 92 93 94 93 85 79 91 81 82 75
61 61 61 60 60 59 59 59 58 58 57 55 70 79 84 80 79 80 77 65 74 78 79 79 72 77 74 79 78 81 81 87 86 90 93 84 75 88 90 93 90 88 91 79 81 66 65
60 60 60 60 60 60 59 59 58 57 55 55 74 77 78 81 82 79 71 76 77 82 80 77 75 75 77 77 80 80 81 86 89 89 91 89 83 82 88 84 83 84 82 84 86 81 71
60 60 60 60 60 60 60 59 57 55 54 60 75 74 82 83 75 80 76 76 62 80 83 80 79 79 77 78 78 79 79 85 93 92 83 89 86 78 80 91 94 91 87 88 77 74 79
60 60 60 60 60 60 60 59 57 55 54 68 73 78 84 82 72 74 76 76 78 78 79 79 78 81 82 77 73 81 82 89 90 90 85 89 81 74 77 85 88 84 88 89 89 88 76
60 60 60 60 60 60 60 59 56 55 55 64 71 71 77 79 80 76 73 74 73 80 79 81 80 82 79 78 83 78 82 86 87 89 75 86 86 80 74 77 85 79 84 87 87 79 80
60 60 60 60 60 60 60 59 57 56 55 63 73 71 67 71 75 76 76 74 72 72 79 80 78 78 77 73 78 78 84 86 86 76 84 89 79 83 84 86 86 86 84 86 83 85 80
59 60 60 60 60 60 60 60 58 56 56 68 67 68 74 73 71 72 64 73 72 75 75 77 75 78 79 75 79 78 81 84 82 84 84 90 80 83 80 86 84 82 86 87 86 86 85
59 59 59 60 60 60 60 60 59 57 56 71 74 73 69 63 71 71 74 73 73 74 78 79 77 76 77 79 84 84 86 88 88 83 84 85 83 78 74 82 82 76 83 85 87 89 88
59 59 59 60 60 60 60 60 59 57 57 69 71 69 68 68 71 72 71 73 73 73 71 78 80 76 82 88 88 89 88 88 87 87 91 82 81 82 77 78 65 85 95 92 87 89 92
59 59 59 59 60 60 60 61 60 59 57 68 71 68 68 66 73 70 71 72 75 76 75 77 81 84 87 83 80 78 79 79 82 84 87 90 84 77 73 74 80 83 86 86 84 85 93
58 58 59 59 59 60 60 61 60 59 57 64 69 69 67 65 73 71 70 72 71 74 75 78 84 87 83 81 79 69 70 75 74 78 86 87 86 80 76 70 67 83 89 89 89 79 91
58 58 58 59 59 59 60 61 60 60 57 60 64 69 66 64 74 71 72 72 75 73 73 77 77 80 83 78 75 73 71 78 72 72 73 77 78 75 75 73 79 87 86 87 74 78 87
57 57 58 58 58 59 59 60 60 60 59 59 63 70 65 66 71 73 74 71 74 73 71 77 75 77 78 72 75 76 75 78 75 76 76 75 74 75 76 70 68 86 82 78 82 87 87
57 57 57 58 58 59 59 59 60 60 59 59 57 68 71 58 69 74 75 77 77 78 74 77 72 71 78 73 77 78 74 79 76 71 77 72 80 75 79 78 83 86 87 90 89 85 85

GFSGBSN_sfc_temp_279.txt.gz
Temp
64 64 63 63 63 62 62 62 62 62 62 62 62 62 62 62 62 63 62 62 62 61 62 63 64 65 85 93 98 104 88 88 102 102 103 104 101 101 91 97 96 92 92 92 94 94 94
64 64 64 64 63 63 62 62 62 62 62 62 63 63 62 62 62 62 62 61 61 61 62 63 65 64 87 88 109 109 107 107 109 106 106 107 103 104 99 97 95 96 93 93 93 93 94
64 64 64 63 63 63 63 63 63 62 62 62 63 62 61 62 61 61 61 61 60 61 62 64 65 81 91 95 109 111 109 108 111 109 106 109 108 103 103 93 100 97 90 92 93 93 92
64 64 64 64 63 63 63 63 63 63 62 62 61 61 61 61 61 61 60 60 60 61 63 66 66 87 89 108 111 108 110 109 111 112 110 111 110 105 101 102 98 93 88 81 91 92 93
64 64 64 64 63 63 62 62 62 62 62 62 61 61 61 61 60 59 59 59 61 63 67 67 81 90 91 93 100 109 111 106 110 110 110 109 107 102 101 92 71 87 79 82 86 93 91
64 63 63 63 63 62 62 62 61 61 62 62 61 60 61 60 59 58 57 58 64 65 73 88 92 87 96 96 105 107 111 109 106 105 102 101 101 96 97 88 74 79 81 82 83 90 90
63 63 63 62 62 62 62 61 62 61 61 61 61 60 60 60 59 58 65 87 84 83 90 91 93 94 95 102 105 102 108 104 105 101 92 98 92 89 94 93 92 90 86 83 87 91 88
63 63 63 62 62 61 61 62 61 61 61 61 61 60 59 59 58 57 69 91 89 90 83 98 97 97 100 100 93 101 109 97 96 90 95 93 87 96 98 94 91 91 85 79 89 91 90
63 63 62 62 61 61 61 61 61 60 60 61 61 60 59 58 57 68 91 92 97 96 84 93 97 95 97 100 93 98 103 99 94 90 92 88 94 98 94 92 90 91 85 84 84 90 94
63 63 62 62 61 61 61 60 60 60 60 60 60 60 58 56 66 92 91 95 98 96 78 86 89 94 96 97 91 105 106 100 96 90 93 93 98 95 93 89 93 85 92 90 87 85 59
63 63 62 62 61 61 60 60 60 60 59 59 59 58 57 55 78 89 92 97 98 93 66 87 90 100 99 92 97 97 106 100 91 92 93 89 91 91 89 91 95 89 93 91 89 86 86
62 62 62 62 61 61 60 59 59 59 59 59 58 57 56 74 81 91 96 97 93 74 66 82 91 88 88 92 95 99 97 102 101 94 95 92 101 97 95 96 96 96 91 91 90 89 74
62 62 62 62 61 61 60 59 59 59 58 58 57 56 56 76 89 95 95 90 74 70 86 82 84 89 89 87 90 92 88 88 86 80 82 89 90 97 98 91 97 93 87 75 74 75 61
62 61 61 61 61 60 60 60 59 59 58 57 55 54 65 81 93 92 90 80 66 79 81 88 86 88 84 90 89 90 88 86 92 91 87 81 79 91 96 92 89 89 89 79 66 67 70
61 61 61 61 61 60 60 59 59 58 57 56 54 86 87 93 90 90 83 72 75 81 86 83 86 82 83 89 89 88 87 87 92 93 83 84 82 97 97 98 95 89 85 94 84 87 80
61 61 61 61 61 60 60 59 59 58 57 55 71 85 91 94 92 87 79 67 83 86 86 86 79 84 81 84 83 86 86 92 91 96 97 90 79 94 95 97 97 93 97 83 85 70 68
61 61 60 61 61 60 60 60 59 58 56 56 73 82 89 93 91 83 74 79 84 90 87 83 82 80 83 84 86 86 86 92 94 94 97 93 89 87 92 88 87 89 86 88 90 72 75
61 60 60 60 60 60 60 60 58 56 55 64 82 78 91 93 78 83 79 84 62 86 89 85 85 83 83 85 83 84 84 90 98 96 89 93 90 81 86 95 97 94 89 90 81 76 84
60 60 60 60 60 61 60 60 58 56 55 71 77 84 93 91 74 80 85 82 84 84 86 85 83 87 88 84 78 85 88 96 96 94 90 93 84 77 81 90 94 88 91 93 93 89 80
59 60 61 60 60 61 61 60 58 57 56 66 76 76 84 84 86 82 81 80 80 87 85 87 85 88 84 82 87 82 86 92 94 94 77 89 89 82 77 81 89 83 87 91 91 83 82
59 59 60 60 60 61 61 60 60 58 57 65 78 78 78 76 80 82 84 81 78 79 86 87 82 83 82 79 82 83 88 90 92 79 89 92 81 86 88 90 91 88 87 88 86 88 82
58 59 60 60 60 60 60 61 60 58 56 70 74 75 79 79 82 80 70 78 77 81 82 81 80 86 86 80 83 81 88 89 87 90 88 94 81 85 82 88 89 86 89 89 89 89 89
58 59 60 60 60 60 60 61 61 59 58 77 83 82 75 70 79 78 79 80 80 82 83 86 84 83 81 85 90 91 93 93 92 88 88 88 85 82 76 86 86 79 86 89 90 93 92
59 60 60 60 60 60 60 60 61 60 59 71 77 75 72 72 78 78 80 80 79 80 78 84 84 81 88 94 93 94 94 93 93 93 96 87 84 84 78 82 68 87 97 95 91 93 95
60 60 60 60 60 60 60 60 61 60 59 69 73 74 73 70 78 78 78 78 81 81 79 81 86 91 94 89 82 79 82 83 86 91 93 94 88 80 75 76 82 87 91 92 89 87 96
59 59 59 59 59 60 60 60 61 60 58 67 72 76 72 70 74 78 76 79 77 79 81 84 90 95 91 84 81 70 71 76 76 82 93 91 91 81 67 71 69 85 95 100 97 81 95
59 59 59 59 59 59 60 60 61 61 58 65 68 75 72 68 78 79 75 75 83 81 78 84 84 84 91 80 76 76 66 79 70 73 77 81 81 78 77 57 77 88 93 97 77 79 92
57 58 58 58 59 59 59 60 61 61 60 63 66 73 65 67 75 78 80 76 79 79 75 82 80 84 82 76 77 79 73 75 64 65 62 76 75 77 79 73 67 88 91 83 86 92 91
57 57 57 58 58 59 59 59 60 60 60 59 64 73 72 61 71 78 80 82 82 82 80 82 79 78 83 78 81 83 69 62 53 48 72 60 50 58 77 75 67 74 82 94 95 90 90

GFSGBSN_sfc_temp_282.txt.gz
Temp
65 65 64 64 63 63 63 63 63 63 63 63 63 63 62 62 62 62 62 62 62 61 62 63 64 65 81 90 95 104 85 87 99 100 100 100 99 100 93 82 91 87 91 95 96 95 96
65 65 64 65 64 64 64 64 64 63 63 62 62 62 62 62 62 62 62 61 61 61 62 63 65 64 83 83 111 111 109 105 107 104 103 104 102 105 99 98 93 93 95 95 95 95 96
65 65 65 65 64 64 63 64 64 63 63 62 62 61 61 61 61 61 61 61 60 61 62 64 65 79 87 91 112 113 110 108 110 109 104 109 109 102 102 95 101 87 88 77 93 94 93
65 64 64 65 63 63 63 63 63 63 63 62 62 61 61 61 61 61 60 60 60 62 63 65 67 83 86 110 113 110 111 108 112 112 109 111 110 104 101 93 88 76 83 68 90 94 94
64 63 63 63 63 62 62 62 62 62 62 61 61 61 61 61 61 60 59 59 61 65 66 68 79 86 87 97 102 108 111 104 108 109 110 111 107 99 100 88 74 72 68 75 83 94 93
64 63 63 63 63 62 62 62 62 62 61 61 61 61 60 60 59 59 58 58 70 67 73 88 91 86 94 96 106 108 111 109 104 105 102 101 98 93 94 84 72 74 77 83 82 89 91
64 64 63 63 62 62 61 61 62 62 61 61 61 61 60 60 59 58 64 89 83 81 87 87 92 92 99 106 108 104 109 105 104 100 90 96 88 85 90 91 91 90 88 83 87 94 89
64 64 63 63 62 62 61 61 61 61 61 61 61 60 60 59 58 58 64 85 92 94 82 95 94 97 103 103 94 100 108 96 94 88 94 91 85 93 98 96 92 91 85 80 85 94 91
64 64 63 62 62 62 61 61 60 60 60 60 60 60 58 57 57 69 88 93 101 100 83 90 97 97 98 101 93 97 103 98 92 88 90 86 91 98 95 93 89 89 85 78 84 89 90
63 63 63 62 62 61 61 61 60 60 60 60 59 59 58 56 68 90 91 99 102 101 75 86 91 96 100 100 91 104 107 99 94 88 91 90 97 94 93 90 91 84 92 90 88 85 74
63 62 62 62 62 61 61 60 60 60 59 59 59 58 57 56 74 85 95 101 101 95 62 90 92 104 101 92 97 96 108 100 89 90 93 88 91 91 88 91 94 87 96 90 89 85 78
63 62 62 62 62 61 61 60 59 59 59 59 58 58 56 76 75 88 99 100 95 73 64 85 92 89 89 92 94 100 98 102 100 92 94 92 100 97 94 97 96 97 92 90 89 86 59
63 62 62 61 62 61 60 60 59 59 59 58 57 56 57 74 84 97 98 91 72 66 89 84 86 90 88 87 89 93 89 88 84 78 79 88 90 97 99 91 96 93 87 73 72 58 50
62 61 61 61 61 61 60 60 59 59 58 57 55 55 66 78 93 95 92 79 63 80 82 92 90 90 84 89 88 90 88 84 90 89 85 79 77 91 96 92 88 89 88 76 62 58 59
62 61 61 61 61 61 60 60 59 59 58 56 54 85 86 90 89 92 81 68 71 80 89 87 88 83 84 88 90 88 87 86 90 91 80 81 82 98 97 97 95 87 82 92 81 84 75
61 61 61 61 61 61 60 60 59 58 58 56 66 79 87 100 97 88 76 64 80 90 89 87 77 85 80 85 85 86 85 91 90 95 97 88 78 93 96 98 97 91 95 81 83 67 66
61 61 60 60 61 61 61 60 59 58 56 57 70 79 95 99 95 81 70 76 83 92 90 83 81 82 84 85 87 85 85 92 95 94 97 93 87 85 93 88 86 87 84 86 87 79 67
60 60 60 60 60 60 61 60 59 57 55 65 78 74 95 97 77 80 76 82 76 88 92 87 87 85 83 85 84 85 84 90 99 97 88 94 88 79 85 96 97 93 89 88 78 75 80
59 60 60 60 60 61 61 60 59 57 56 68 73 82 96 93 71 76 83 84 88 86 86 86 84 87 88 84 79 85 88 97 98 95 89 93 84 74 79 89 94 88 90 91 90 88 77
59 59 60 60 60 60 61 60 59 58 57 65 73 75 85 86 85 80 79 82 82 90 86 88 86 89 85 83 87 82 86 94 96 94 79 87 87 81 74 80 89 84 87 89 88 81 81
60 59 59 60 61 61 60 60 59 59 58 64 75 77 81 72 80 82 83 82 81 80 88 88 83 83 82 77 81 81 87 90 94 84 90 91 79 84 86 88 90 88 88 88 85 86 80
59 59 59 61 61 60 60 60 60 59 57 66 71 73 79 75 78 80 75 79 79 83 84 82 80 84 85 79 82 80 85 87 86 91 88 92 78 83 80 87 88 85 89 89 88 88 87
59 59 60 61 61 60 60 60 60 60 58 73 77 81 77 68 78 76 79 80 81 83 86 87 86 84 83 86 91 90 85 83 87 83 78 77 83 78 73 84 84 78 85 88 89 92 90
59 61 61 61 61 60 60 60 60 61 59 68 73 74 71 68 76 77 80 82 79 82 79 85 88 83 89 93 92 92 92 89 91 86 76 63 68 82 75 79 66 85 96 95 90 92 95
60 60 60 60 60 60 60 60 61 61 60 67 72 69 68 66 75 77 80 79 77 81 82 83 86 90 94 90 81 76 78 81 85 90 84 75 62 73 72 73 80 86 91 90 88 86 96
59 60 59 60 60 60 60 60 60 61 59 65 71 74 70 66 71 77 77 79 76 77 81 84 91 95 92 84 78 67 67 74 75 81 92 92 90 79 77 70 67 73 84 99 99 81 96
58 59 59 59 59 59 60 60 61 61 59 64 67 73 68 65 75 77 74 74 80 78 77 81 80 86 91 78 72 71 71 69 67 65 59 65 77 76 70 70 76 80 82 86 78 74 93
58 58 58 58 58 59 59 60 60 61 61 62 68 73 66 64 70 75 79 74 78 79 74 77 79 84 81 74 74 75 72 58 59 64 61 59 60 65 65 70 66 77 80 69 65 68 90
57 58 58 58 58 59 59 60 59 60 60 59 65 73 72 62 66 75 77 80 80 81 78 80 77 78 81 76 77 77 59 56 51 58 59 55 60 63 65 63 68 75 76 73 69 63 65

GFSGBSN_sfc_temp_285.txt.gz
Temp
65 66 65 65 64 64 64 64 64 63 63 63 62 62 62 62 61 62 62 62 62 61 62 63 64 65 69 70 80 94 85 85 87 92 91 90 87 87 84 86 86 83 83 89 90 93 92
66 66 65 65 64 64 64 64 64 64 63 63 62 62 62 62 62 62 62 61 61 61 62 63 65 64 65 67 97 96 93 90 95 93 92 93 90 93 87 86 84 86 86 81 83 89 92
65 64 64 64 63 63 63 62 62 62 63 63 62 62 61 61 62 62 62 61 61 61 62 64 65 73 72 75 97 97 96 95 96 97 92 98 99 91 89 84 88 87 76 77 79 83 88
64 64 63 63 63 62 62 62 62 62 62 61 61 61 61 61 61 61 61 60 60 62 64 65 66 69 68 94 96 95 99 97 100 100 99 99 99 91 86 88 84 75 74 66 82 85 87
64 63 63 63 63 62 62 62 62 62 61 61 61 61 61 61 61 60 59 59 61 64 66 67 63 65 72 94 90 96 94 95 96 97 98 107 96 85 88 78 66 72 64 67 74 89 85
64 64 63 63 63 62 62 61 61 61 61 61 61 61 61 60 60 58 58 59 66 65 69 80 83 69 79 86 94 97 96 98 94 93 93 91 84 78 78 71 61 63 66 71 68 80 82
64 64 64 63 63 62 62 61 61 61 61 61 61 60 60 59 58 57 57 69 70 66 71 74 75 79 88 93 99 91 97 95 93 87 76 84 72 70 77 81 80 80 76 71 81 88 81
65 64 64 63 63 62 62 61 61 61 61 60 60 60 59 59 58 58 56 68 80 81 71 86 86 86 91 94 87 92 95 81 83 75 81 76 71 82 88 87 83 79 79 69 76 85 79
63 63 63 63 62 62 61 61 61 60 60 60 60 59 59 58 59 60 73 79 91 88 70 80 87 86 88 89 85 87 90 86 80 76 78 71 79 90 88 86 83 74 74 70 73 81 74
63 62 62 62 62 62 61 61 60 60 60 60 59 59 58 56 64 74 77 90 91 89 60 73 78 87 90 91 82 96 94 88 83 76 79 76 85 87 85 82 80 65 86 87 83 70 57
63 63 62 62 62 61 61 61 60 60 59 59 59 59 57 55 61 68 83 92 90 81 48 83 83 97 90 83 82 85 97 87 79 79 76 75 80 80 79 83 87 79 88 84 80 65 61
63 63 62 61 61 61 61 60 60 59 59 59 59 58 56 68 65 72 81 85 84 58 54 79 85 82 78 82 85 87 88 89 89 81 81 80 89 82 81 89 89 91 82 79 66 60 50
63 62 61 61 61 61 60 60 60 59 58 58 57 56 56 66 69 84 82 78 56 52 80 78 75 81 78 76 79 80 79 75 69 59 63 76 79 86 87 77 83 81 66 56 54 48 47
62 62 61 61 61 61 60 60 60 59 58 57 55 55 61 68 72 75 78 64 51 70 72 84 80 80 75 78 78 80 74 70 77 73 66 62 62 79 86 80 74 74 67 58 52 48 53
61 62 61 61 60 61 60 60 59 59 58 56 54 71 76 79 75 78 66 54 60 71 81 80 80 72 73 79 77 77 74 72 78 77 64 61 66 85 86 87 81 73 67 75 67 63 56
61 61 61 60 60 60 60 60 59 59 58 56 56 65 73 88 85 77 62 55 66 79 80 81 69 74 68 74 74 72 72 80 79 84 80 71 63 77 87 84 84 76 77 63 62 55 50
60 60 60 60 60 60 60 60 59 58 57 57 60 68 85 92 88 69 58 63 73 83 84 78 74 72 73 73 75 73 74 81 86 84 82 76 67 73 77 71 72 70 66 67 65 63 54
60 60 60 60 60 60 60 60 59 57 55 62 69 63 88 91 66 67 64 70 69 79 85 79 78 76 74 76 72 73 75 80 89 86 76 77 69 61 69 83 84 80 73 69 59 59 60
60 60 59 60 60 60 60 60 58 57 56 58 61 69 87 87 62 65 72 75 79 79 80 79 77 79 79 73 66 74 79 89 90 81 69 72 63 56 63 72 77 72 74 71 70 66 59
61 60 60 60 60 60 60 59 59 58 58 59 62 63 74 77 76 71 69 71 74 86 83 81 78 79 75 71 74 71 77 87 90 83 77 78 66 61 56 64 70 70 76 76 70 59 61
60 60 59 60 61 60 60 60 59 58 58 58 64 67 72 63 67 69 73 73 73 75 82 81 74 77 73 65 70 70 78 81 85 78 79 75 62 63 70 75 77 76 77 78 70 69 61
59 59 59 60 61 60 60 60 59 59 57 58 60 63 69 61 65 70 68 70 74 78 78 75 73 80 77 67 70 69 75 70 69 79 70 74 62 61 64 75 77 74 79 79 77 78 74
59 60 60 61 61 60 60 60 59 59 57 63 67 70 66 62 65 61 65 71 74 79 78 82 81 77 76 76 76 77 81 78 75 70 70 67 61 57 55 70 70 65 72 76 76 75 75
60 60 61 61 61 61 60 60 60 60 59 62 65 65 61 59 65 68 73 76 74 75 69 78 81 74 79 80 78 76 79 81 79 74 75 65 58 56 53 60 51 71 81 83 80 82 82
59 60 60 60 61 60 60 60 60 60 60 61 65 63 61 56 65 68 69 70 75 73 73 74 80 82 84 82 68 63 68 69 72 77 74 74 57 55 53 53 66 75 74 73 68 71 66
59 59 59 60 60 60 60 60 60 60 60 60 66 67 62 56 60 68 64 68 67 67 71 76 81 83 82 70 66 56 56 62 62 69 74 69 59 56 56 53 53 60 70 76 76 61 68
58 58 58 58 59 59 60 60 60 61 60 59 63 70 62 56 64 66 62 63 69 69 65 70 72 74 79 65 61 59 60 63 57 57 54 58 57 55 53 51 60 67 73 77 58 57 67
58 58 58 58 58 59 59 60 60 60 60 59 63 69 60 56 61 65 67 63 65 66 61 67 67 69 69 63 62 61 58 54 55 57 54 54 52 56 51 47 51 68 71 62 63 63 64
58 57 58 58 58 59 59 59 60 59 60 59 60 68 69 58 60 68 69 70 70 70 67 68 65 61 66 58 61 64 54 53 51 49 58 52 54 51 55 56 63 66 64 69 66 63 67

GFSGBSN_sfc_temp_288.txt.gz
Temp
66 65 64 64 63 63 63 63 63 63 63 63 63 62 62 62 62 62 62 62 62 62 62 63 64 64 65 65 74 90 83 83 83 85 86 85 80 78 74 80 86 79 83 85 86 87 87
64 64 63 63 63 62 62 62 62 62 62 62 62 62 62 62 62 62 62 62 61 61 62 63 65 65 63 62 88 89 86 83 86 85 86 86 84 84 81 79 79 84 85 84 84 83 87
63 63 63 63 63 62 62 62 62 62 62 62 62 62 62 62 62 62 61 61 61 61 62 64 65 70 64 72 87 87 84 85 86 89 85 89 90 83 81 76 87 83 76 77 80 81 83
63 63 63 63 62 62 62 62 62 61 61 61 61 61 61 61 61 61 60 59 60 62 63 65 66 64 63 83 83 87 85 87 92 90 90 92 91 86 80 84 80 75 74 65 79 82 82
63 63 63 63 62 62 61 61 61 61 61 61 61 61 61 61 60 59 58 58 61 64 65 67 59 60 65 86 83 87 86 87 85 89 90 101 87 78 81 72 65 69 61 69 72 84 79
64 63 63 63 62 61 61 61 61 61 61 61 60 60 60 60 60 59 58 59 62 65 67 74 78 63 73 81 85 88 87 90 86 84 87 84 77 71 70 65 59 63 66 72 68 76 72
64 63 63 63 62 62 61 61 61 61 61 61 60 60 60 60 59 58 57 62 68 66 65 69 70 70 79 85 89 87 90 85 82 80 69 76 68 64 71 71 75 73 72 71 78 80 66
63 63 63 62 62 61 61 61 61 60 60 60 60 59 59 59 58 58 55 63 70 72 65 76 79 77 84 81 78 84 88 78 75 70 70 69 64 76 79 79 79 75 72 68 73 75 69
63 62 62 62 61 61 61 61 60 60 60 60 60 59 58 58 58 59 64 70 79 72 62 71 76 77 78 80 77 79 83 79 73 68 71 65 73 82 80 78 76 71 74 68 67 73 71
62 62 62 61 61 61 61 60 60 60 60 59 59 59 58 56 62 60 67 75 79 75 53 63 68 78 80 82 76 88 87 83 73 72 71 69 79 79 77 75 74 64 82 80 73 67 55
64 64 63 61 61 60 60 60 60 59 59 59 59 58 56 56 53 58 73 75 77 71 46 76 72 86 81 76 74 82 87 80 73 74 70 69 74 74 72 76 78 74 81 78 73 61 56
63 63 62 61 61 60 60 59 59 59 59 59 59 58 56 58 53 61 68 70 70 55 49 71 78 75 72 70 75 81 81 80 80 73 69 73 78 75 76 83 81 84 72 68 61 55 50
62 62 61 61 60 60 60 59 59 59 58 58 57 56 55 62 59 66 66 66 52 45 70 70 67 70 69 69 72 73 71 67 66 57 56 69 73 76 80 72 76 73 61 53 52 48 47
61 61 61 60 60 60 60 60 59 58 58 57 55 54 54 60 57 62 64 59 42 62 63 73 73 69 68 70 70 72 66 63 67 63 57 57 59 71 78 73 70 66 62 54 48 46 48
60 60 60 60 60 59 59 59 58 58 58 56 54 54 58 63 64 63 60 46 50 61 70 68 69 65 63 70 67 64 66 65 70 69 62 54 60 73 77 78 77 70 61 67 57 50 50
60 60 60 59 59 59 59 59 58 58 57 56 53 51 57 70 69 63 55 47 55 69 72 69 57 63 60 63 63 60 63 72 71 75 70 65 58 70 77 77 77 75 73 60 56 49 46
60 59 59 59 59 59 59 59 58 57 56 56 51 55 68 73 71 59 49 50 63 71 73 66 66 63 61 62 63 62 65 75 77 78 72 66 62 72 69 65 67 67 62 60 60 55 49
60 60 59 59 59 59 59 59 58 56 55 55 51 52 71 75 58 53 50 58 64 69 74 70 70 68 64 67 62 63 67 71 80 78 70 70 60 59 64 70 77 73 69 62 56 55 53
60 60 60 59 59 59 59 59 57 56 55 52 48 52 71 72 52 51 57 64 69 70 71 69 70 68 68 63 60 65 71 82 82 78 67 69 56 52 60 65 67 63 66 61 60 55 53
59 60 60 59 59 60 59 58 57 57 56 52 49 49 60 63 59 54 55 60 62 75 73 75 73 68 66 63 61 64 69 79 81 80 73 70 56 56 54 60 62 62 69 68 61 54 54
59 59 59 59 60 60 59 59 57 57 56 52 50 51 56 50 55 56 54 62 65 66 72 72 67 70 66 55 61 63 67 71 76 74 72 66 61 58 60 65 65 65 69 70 60 63 61
59 59 60 60 61 60 60 59 58 58 55 52 49 51 55 52 55 54 53 57 64 69 68 68 67 73 68 58 61 61 63 63 63 72 67 64 59 57 60 67 67 66 70 70 69 71 65
60 60 60 60 61 61 60 59 58 58 54 52 57 58 53 51 54 53 55 62 66 68 71 74 73 69 67 70 71 68 68 66 67 62 64 61 57 54 51 59 63 59 61 66 67 63 63
59 59 60 60 60 60 59 59 59 59 57 52 53 53 50 48 54 56 61 64 63 65 65 72 71 65 73 73 72 67 69 69 72 69 64 60 54 51 51 54 47 58 69 68 67 68 65
59 59 59 59 60 60 60 60 59 59 58 52 54 53 50 48 54 58 59 60 63 64 65 70 72 72 72 69 61 57 58 63 64 65 59 59 54 52 51 47 57 60 64 63 60 61 70
60 58 58 58 59 59 60 60 60 59 59 53 53 61 58 50 48 59 56 59 54 55 59 67 73 74 72 61 58 49 50 56 57 61 62 59 57 57 50 47 48 55 68 73 70 56 71
59 58 58 58 58 59 60 60 60 60 59 54 53 56 53 50 52 53 51 53 59 55 53 59 62 64 69 56 54 51 52 56 49 48 50 54 52 49 46 45 53 61 67 72 53 55 65
58 57 57 58 58 58 59 59 60 60 60 56 56 62 57 52 52 59 61 54 54 53 50 56 61 60 54 53 52 51 50 49 49 50 48 50 49 47 46 45 46 66 68 60 61 63 63
57 57 57 57 58 58 58 59 59 59 59 59 51 63 64 55 53 62 64 65 63 62 56 55 55 55 55 51 52 52 50 49 47 46 53 49 52 51 54 52 60 64 65 66 65 63 65